KE7JVX-3 Weather Reports


time (UTC)temp
F
wind
direction
speed
knots
gust
knots
rain 1hr
in
rain 24hr
in
rain mn
in
humidity
%
barometer
mb
20260904005908 60 278 1.7 5.2 0.00 0.00 0.00 51 1014.7
20260904004907 61 0 0.0 9.6 0.00 0.00 0.00 48 1014.7
20260904003907 62 261 3.5 9.6 0.00 0.00 0.00 46 1014.8
20260904002907 62 267 3.5 8.7 0.00 0.00 0.00 48 1014.7
20260904001907 62 194 0.9 10.4 0.00 0.00 0.00 46 1014.7
20260904000907 63 290 5.2 11.3 0.00 0.00 0.00 44 1014.7
20260903235907 63 236 3.5 11.3 0.00 0.00 0.00 44 1014.7
20260903234909 64 249 2.6 11.3 0.00 0.00 0.00 46 1014.7
20260903233907 63 222 1.7 13.9 0.00 0.00 0.00 47 1014.7
20260903232907 63 239 1.7 11.3 0.00 0.00 0.00 47 1015.0
20260903231907 63 261 3.5 13.0 0.00 0.00 0.00 49 1015.0
20260903230907 62 226 5.2 10.4 0.00 0.00 0.00 48 1015.0
20260903225907 63 253 4.3 11.3 0.00 0.00 0.00 50 1015.0
20260903224907 61 270 4.3 10.4 0.00 0.00 0.00 51 1015.1
20260903223907 62 297 7.0 12.2 0.00 0.00 0.00 52 1015.1
20260903222907 62 274 5.2 11.3 0.00 0.00 0.00 53 1015.2
20260903221907 62 265 7.8 13.0 0.00 0.00 0.00 50 1015.2
20260903220907 62 260 7.8 13.0 0.00 0.00 0.00 50 1015.2
20260903215907 64 267 8.7 13.0 0.00 0.00 0.00 49 1015.3
20260903214907 63 277 5.2 13.9 0.00 0.00 0.00 46 1015.3
20260903213907 63 275 7.0 14.8 0.00 0.00 0.00 47 1015.3
20260903212907 63 258 7.0 15.6 0.00 0.00 0.00 51 1015.4
20260903211907 62 252 6.1 15.6 0.00 0.00 0.00 49 1015.5
20260903210907 61 256 5.2 12.2 0.00 0.00 0.00 54 1015.6
20260903205907 61 269 6.1 15.6 0.00 0.00 0.00 53 1015.6
20260903204907 61 263 7.0 13.9 0.00 0.00 0.00 58 1015.8
20260903203908 61 248 7.8 14.8 0.00 0.00 0.00 57 1015.8
20260903202907 61 252 7.8 17.4 0.00 0.00 0.00 58 1015.8
20260903201907 61 266 4.3 11.3 0.00 0.00 0.00 60 1015.9
20260903200907 62 260 7.0 13.9 0.00 0.00 0.00 56 1016.0
20260903195907 61 257 7.0 13.0 0.00 0.00 0.00 56 1016.0
20260903194907 60 243 3.5 7.8 0.00 0.00 0.00 63 1016.1
20260903193908 60 253 5.2 10.4 0.00 0.00 0.00 63 1016.1
20260903192907 59 255 4.3 11.3 0.00 0.00 0.00 63 1016.2
20260903191908 59 244 7.0 13.0 0.00 0.00 0.00 63 1016.3
20260903190908 59 232 6.1 12.2 0.00 0.00 0.00 64 1016.4
20260903185907 59 247 6.1 10.4 0.00 0.00 0.00 66 1016.4
20260903184907 59 246 7.8 12.2 0.00 0.00 0.00 67 1016.6
20260903183908 59 249 7.0 14.8 0.00 0.00 0.00 66 1016.7
20260903182909 59 264 6.1 11.3 0.00 0.00 0.00 64 1016.8
20260903181907 59 253 7.0 11.3 0.00 0.00 0.00 65 1016.8
20260903180911 59 262 5.2 9.6 0.00 0.00 0.00 65 1016.9
20260903175910 58 254 5.2 8.7 0.00 0.00 0.00 65 1016.9
20260903174907 58 267 3.5 8.7 0.00 0.00 0.00 64 1017.0
20260903173907 58 248 6.1 9.6 0.00 0.00 0.00 65 1017.0
20260903172907 57 256 2.6 7.8 0.00 0.00 0.00 65 1016.9
20260903171907 57 256 4.3 11.3 0.00 0.00 0.00 65 1017.0
20260903170908 58 266 6.1 13.0 0.00 0.00 0.00 66 1017.0
20260903165907 57 269 6.1 10.4 0.00 0.00 0.00 63 1016.9
20260903164907 57 227 3.5 8.7 0.00 0.00 0.00 62 1016.8
20260903163906 57 240 3.5 10.4 0.00 0.00 0.00 63 1016.8
20260903162907 56 244 4.3 8.7 0.00 0.00 0.00 64 1016.7
20260903161907 55 241 1.7 6.1 0.00 0.00 0.00 65 1016.7
20260903160907 55 255 2.6 7.8 0.00 0.00 0.00 68 1016.7
20260903155907 55 242 3.5 8.7 0.00 0.00 0.00 65 1016.7
20260903154907 55 260 4.3 7.0 0.00 0.00 0.00 62 1016.7
20260903153907 55 240 2.6 9.6 0.00 0.00 0.00 63 1016.7
20260903152907 55 236 4.3 9.6 0.00 0.00 0.00 60 1016.7
20260903151907 55 244 5.2 9.6 0.00 0.00 0.00 60 1016.7
20260903150907 55 255 4.3 8.7 0.00 0.00 0.00 54 1016.6
20260903145907 55 242 1.7 7.8 0.00 0.00 0.00 55 1016.6
20260903144908 56 234 1.7 3.5 0.00 0.00 0.00 48 1016.7
20260903143907 56 283 1.7 6.1 0.00 0.00 0.00 55 1016.6
20260903142907 56 302 1.7 4.3 0.00 0.00 0.00 55 1016.6
20260903141906 56 0 0.0 2.6 0.00 0.00 0.00 49 1016.6
20260903140907 56 302 0.9 4.3 0.00 0.00 0.00 52 1016.6
20260903135907 55 302 0.9 4.3 0.00 0.00 0.00 44 1016.4
20260903134907 55 286 4.3 7.0 0.00 0.00 0.00 53 1016.4
20260903133907 55 292 3.5 7.8 0.00 0.00 0.00 52 1016.4
20260903132906 55 292 3.5 6.1 0.00 0.00 0.00 52 1016.3
20260903131907 56 0 0.0 5.2 0.00 0.00 0.00 50 1016.3
20260903130907 56 273 3.5 7.8 0.00 0.00 0.00 62 1016.2
20260903125906 56 286 4.3 7.8 0.00 0.00 0.00 61 1016.0
20260903124911 56 273 3.5 8.7 0.00 0.00 0.00 63 1016.0
20260903123907 56 288 5.2 9.6 0.00 0.00 0.00 64 1016.0
20260903122907 56 304 6.1 9.6 0.00 0.00 0.00 63 1015.9
20260903121907 55 301 2.6 7.8 0.00 0.00 0.00 64 1015.9
20260903120906 55 306 4.3 8.7 0.00 0.00 0.00 67 1015.9
20260903115906 55 310 4.3 7.8 0.00 0.00 0.00 68 1015.9
20260903114907 56 310 3.5 8.7 0.00 0.00 0.00 65 1016.0
20260903113906 56 305 5.2 9.6 0.00 0.00 0.00 62 1015.9
20260903112907 56 307 5.2 9.6 0.00 0.00 0.00 60 1016.0
20260903111906 56 305 6.1 10.4 0.00 0.00 0.00 53 1015.9
20260903110907 55 304 7.0 11.3 0.00 0.00 0.00 52 1015.9
20260903105907 55 305 7.0 10.4 0.00 0.00 0.00 57 1015.8
20260903104906 55 305 7.8 12.2 0.00 0.00 0.00 59 1015.8
20260903103907 54 307 8.7 12.2 0.00 0.00 0.00 68 1015.8
20260903102908 54 303 7.8 13.0 0.00 0.00 0.00 73 1015.8
20260903101907 55 305 8.7 13.9 0.00 0.00 0.00 72 1015.9
20260903100907 55 290 9.6 16.5 0.00 0.00 0.00 72 1016.0
20260903095909 55 298 9.6 14.8 0.00 0.00 0.00 70 1016.0
20260903094906 55 301 10.4 15.6 0.00 0.00 0.00 68 1016.0
20260903093907 55 302 10.4 16.5 0.00 0.00 0.00 68 1016.1
20260903092906 55 299 10.4 15.6 0.00 0.00 0.00 68 1016.1
20260903090908 55 294 9.6 13.9 0.00 0.00 0.00 68 1016.1
20260903085907 56 303 8.7 14.8 0.00 0.00 0.00 68 1016.1
20260903084908 56 303 7.8 13.9 0.00 0.00 0.00 68 1016.2
20260903083908 55 299 8.7 13.9 0.00 0.00 0.00 68 1016.2
20260903082907 56 301 8.7 13.0 0.00 0.00 0.00 66 1016.2
20260903081907 56 294 8.7 13.9 0.00 0.00 0.00 63 1016.3
20260903080907 56 291 7.8 13.9 0.00 0.00 0.00 62 1016.4
20260903075907 57 271 11.3 17.4 0.00 0.00 0.00 60 1016.4
20260903074908 57 281 11.3 15.6 0.00 0.00 0.00 58 1016.5
20260903073907 57 287 11.3 15.6 0.00 0.00 0.00 58 1016.5
20260903072907 57 279 9.6 16.5 0.00 0.00 0.00 58 1016.5
20260903071907 57 290 9.6 16.5 0.00 0.00 0.00 59 1016.6
20260903070908 57 280 9.6 16.5 0.00 0.00 0.00 59 1016.6
20260903065908 57 292 10.4 14.8 0.00 0.00 0.00 60 1016.6
20260903064907 57 283 11.3 16.5 0.00 0.00 0.00 60 1016.6
20260903063907 57 282 12.2 16.5 0.00 0.00 0.00 58 1016.6
20260903062907 58 279 12.2 16.5 0.00 0.00 0.00 57 1016.6
20260903061908 57 283 12.2 16.5 0.00 0.00 0.00 56 1016.7
20260903060907 57 279 12.2 15.6 0.00 0.00 0.00 57 1016.6
20260903055907 58 273 9.6 16.5 0.00 0.00 0.00 56 1016.7
20260903054907 58 255 11.3 19.1 0.00 0.00 0.00 52 1016.7
20260903053907 59 273 11.3 16.5 0.00 0.00 0.00 50 1016.5
20260903052907 59 274 9.6 16.5 0.00 0.00 0.00 50 1016.5
20260903051907 59 266 9.6 15.6 0.00 0.00 0.00 49 1016.6
20260903050907 59 280 10.4 16.5 0.00 0.00 0.00 49 1016.5
20260903045907 59 277 10.4 14.8 0.00 0.00 0.00 49 1016.6
20260903044907 59 280 11.3 14.8 0.00 0.00 0.00 49 1016.7
20260903043907 59 289 10.4 14.8 0.00 0.00 0.00 48 1016.8
20260903042908 59 282 9.6 13.9 0.00 0.00 0.00 48 1016.9
20260903041907 59 278 9.6 13.0 0.00 0.00 0.00 48 1016.9
20260903040907 59 280 7.8 13.0 0.00 0.00 0.00 47 1016.8
20260903035907 59 285 7.8 12.2 0.00 0.00 0.00 47 1016.8
20260903034908 59 280 7.8 12.2 0.00 0.00 0.00 47 1016.7
20260903033908 59 286 7.0 11.3 0.00 0.00 0.00 47 1016.7
20260903032910 59 288 8.7 12.2 0.00 0.00 0.00 47 1016.7
20260903031907 59 292 7.0 11.3 0.00 0.00 0.00 48 1016.5
20260903030907 59 289 5.2 12.2 0.00 0.00 0.00 50 1016.6
20260903025911 59 290 7.0 13.0 0.00 0.00 0.00 50 1016.5
20260903024907 59 294 7.8 12.2 0.00 0.00 0.00 50 1016.4
20260903023907 59 295 7.8 12.2 0.00 0.00 0.00 51 1016.3
20260903022907 59 299 7.0 10.4 0.00 0.00 0.00 51 1016.2
20260903021907 59 302 5.2 11.3 0.00 0.00 0.00 52 1016.3
20260903020907 59 302 7.0 10.4 0.00 0.00 0.00 52 1016.1
20260903015908 59 300 6.1 10.4 0.00 0.00 0.00 51 1016.1
20260903014907 60 300 5.2 10.4 0.00 0.00 0.00 51 1016.1
20260903013907 60 306 7.8 13.0 0.00 0.00 0.00 50 1016.1
20260903012907 61 293 7.0 12.2 0.00 0.00 0.00 49 1016.1
20260903011907 61 292 4.3 13.9 0.00 0.00 0.00 46 1016.1
20260903010907 62 293 5.2 12.2 0.00 0.00 0.00 47 1016.1